Location: Unspecified
(48.5539°N, 71.6350°W)
Time: 01:03:19
(UTC-05:00)

ISS - Pass Details

Date: 31 January 2019
Orbit: 403 x 411 km, 51.6° (Epoch: 22 February)

Event Time Altitude Azimuth Distance (km) Brightness Sun altitude
Rises 16:44:28 0° 254° (WSW) 2,326 2.5 -1.0°
Reaches altitude 10° 16:46:33 10° 256° (WSW) 1,469 0.9 -1.3°
Maximum altitude 16:49:51 74° 342° (NNW) 430 -3.7 -1.8°
Drops below altitude 10° 16:53:10 10° 68° (ENE) 1,479 -1.7 -2.3°
Enters shadow 16:54:31 - 70° (ENE) 2,032 -1.0 -2.5°
Sets 16:55:16 0° 70° (ENE) 2,344 - -2.7°
